Regional Weather Roundup
Issued by NWS Midland/Odessa, TX

Home | Current Version | Previous Version | Text Only | Print | Product List | Glossary On
Versions: 1 2 3 4 5 6 7 8 9 10 11 12 13 14 15 16 17 18 19 20 21 22 23 24 25 26 27 28 29 30 31 32 33 34 35 36 37 38 39 40 41 42 43 44 45 46 47 48 49 50
000
ASUS44 KMAF 290710
RWRMAF
MIDLAND AREA WEATHER ROUNDUP
NATIONAL WEATHER SERVICE MIDLAND TX
100 AM CST MON DEC 29 2014

...IN SOUTHWEST TEXAS AND SOUTHEAST NEW MEXICO...

CITY           SKY/WX    TMP DP  RH WIND       PRES   REMARKS
ALPINE         PTCLDY    41  31  67 SW8       30.15F WCI  36
ANDREWS        FAIR      39  27  62 W13       30.02S WCI  32
ARTESIA        MOCLDY    39  19  45 W7        30.02F WCI  34
BIG SPRING     MOCLDY    40  27  60 S9        30.05F WCI  34
CARLSBAD       MOCLDY    36  28  73 CALM      30.01F
DRYDEN           N/A     36  30  79 N5        30.07S WCI  32
FORT STOCKTON  PTCLDY    43  31  62 SW13      30.05F WCI  36
GUAD PASS      NOT AVBL
HOBBS          MOCLDY    32  32 100 S6        30.02S WCI  26
MARFA          PTCLDY    23  19  86 CALM      30.14S
MIDLAND AIRPK  MOCLDY    44  28  54 SW7       30.03S WCI  40
MIDLAND INTL   MOCLDY    43  28  55 SW13      30.03S WCI  36
ODESSA         MOCLDY    43  26  51 W12       30.04S WCI  37
PECOS          MOCLDY    36  29  76 S3        30.05F
PRESIDIO       FAIR      40  30  69 N8        30.12F WCI  34
SEMINOLE       PTCLDY    37  28  72 W9        30.02F WCI  30
SNYDER         PTCLDY    35  25  68 S9        30.03F WCI  28
WINK           MOCLDY    39  27  62 S5        30.03S WCI  36
$$
...OTHER STATIONS IN TEXAS...

CITY           SKY/WX    TMP DP  RH WIND       PRES   REMARKS
ABILENE        CLEAR     37  28  70 S8        30.05F WCI  31
AMARILLO       PTCLDY    29  11  47 NW8       29.95R WCI  21
AUSTIN         CLEAR     29  28  96 CALM      30.15F
BROWNSVILLE    CLOUDY    48  45  89 NW6       30.18S
CORPUS CHRISTI MOCLDY    39  37  92 W6        30.18F WCI  35
DALLAS FTW     PTCLDY    32  25  75 S3        30.13F
DEL RIO        CLEAR     40  35  83 E8        30.12F WCI  34
EL PASO        MOCLDY    41  30  65 SE7       30.09F WCI  36
HOUSTON INT    CLOUDY    41  40  96 NW6       30.15F WCI  37
LUBBOCK        MOCLDY    37  27  67 W9        29.97F WCI  30
SAN ANGELO     PTCLDY    38  30  73 NW3       30.07F
SAN ANTONIO    CLEAR     35  32  88 NW3       30.14F
WACO           CLEAR     29  25  85 SW5       30.14F WCI  24
WICHITA FALLS  NOT AVBL
$$
...OTHER LOCATIONS IN NEW MEXICO...

CITY           SKY/WX    TMP DP  RH WIND       PRES   REMARKS
ALAMAGORDO     PTCLDY    32  19  59 S7        30.09S WCI  26
ALBUQUERQUE    PTCLDY    23  11  60 SE7       30.06F WCI  15
CANNON AFB     PTCLDY    34  10  36 NW10      29.99R WCI  26
CLOVIS         MOCLDY    34   9  35 W20       29.96F WCI  22
HOLLOMAN AFB   PTCLDY    34  23  62 SE6       30.08S WCI  29
ROSWELL        CLOUDY    35  21  56 N5        30.01F WCI  31
RUIDOSO        PTCLDY    28   7  40 CALM      30.04F
SANTA FE       CLEAR     15   6  67 NW10G18   30.02F WCI   2
TRUTH OR CONSE CLEAR     30  16  56 CALM      30.05F
TUCUMCARI      CLEAR     32  14  47 W5        29.97S WCI  27
$$


USA.gov is the U.S. government's official web portal to all federal, state and local government web resources and services.